Private Wetterstation Wechselburg
Wetterdaten: Montag, 24.06.2013
Datum Zeit Temp. +2m Bodentemp. Temp.+5cm Temp. Wind Windchill X Diff Temp. Feuchte +2m Feuchte +5cm Sonnenschein Luftdruck Regen Wind Richtung Richtung Sonnenschein UV Taupunkt Windchill Windben
24.06.2013 00:00 15,6 C 25,5 C 15,7 C 15,4 C 15,0 C 0,0 C 77 % 80 % 0 % 1013,9 hPa 0,0 l/m 0,0 km/h (0 Bft) O 90 0 min 0,0 UV-I 11,6 C 15,0 C 0,0 km/h (0 Bft)
24.06.2013 00:05 15,5 C 25,5 C 15,6 C 15,3 C 15,0 C 0,0 C 77 % 79 % 0 % 1013,9 hPa 0,0 l/m 0,0 km/h (0 Bft) O-NO 67 0 min 0,0 UV-I 11,5 C 15,0 C 0,0 km/h (0 Bft)
24.06.2013 00:10 15,5 C 25,6 C 15,7 C 15,3 C 14,9 C 0,0 C 78 % 80 % 0 % 1013,9 hPa 0,0 l/m 0,0 km/h (0 Bft) O-NO 67 0 min 0,0 UV-I 11,7 C 14,9 C 0,0 km/h (0 Bft)
24.06.2013 00:15 15,5 C 25,5 C 15,6 C 15,3 C 14,9 C 0,0 C 78 % 80 % 0 % 1013,8 hPa 0,0 l/m 0,0 km/h (0 Bft) O-NO 67 0 min 0,0 UV-I 11,7 C 14,9 C 0,0 km/h (0 Bft)
24.06.2013 00:20 15,5 C 25,5 C 15,5 C 15,3 C 14,9 C 0,0 C 79 % 80 % 0 % 1013,8 hPa 0,0 l/m 0,2 km/h (0 Bft) O-NO 67 0 min 0,0 UV-I 11,9 C 14,9 C 0,0 km/h (0 Bft)
24.06.2013 00:25 15,5 C 25,5 C 15,4 C 15,3 C 14,9 C 0,0 C 79 % 80 % 0 % 1013,8 hPa 0,0 l/m 0,2 km/h (0 Bft) O-NO 67 0 min 0,0 UV-I 11,9 C 14,9 C 0,0 km/h (0 Bft)
24.06.2013 00:30 15,4 C 25,5 C 15,5 C 15,2 C 14,7 C 0,0 C 79 % 80 % 0 % 1013,8 hPa 0,0 l/m 0,0 km/h (0 Bft) O-NO 67 0 min 0,0 UV-I 11,8 C 14,7 C 0,0 km/h (0 Bft)
24.06.2013 00:35 15,3 C 25,5 C 15,5 C 15,1 C 14,7 C 0,0 C 79 % 81 % 0 % 1013,8 hPa 0,0 l/m 0,0 km/h (0 Bft) O-NO 67 0 min 0,0 UV-I 11,7 C 14,7 C 0,0 km/h (0 Bft)
24.06.2013 00:53 15,2 C 25,5 C 15,2 C 15,0 C 14,6 C 0,0 C 80 % 81 % 0 % 1013,4 hPa 0,0 l/m 0,0 km/h (0 Bft) O-NO 67 0 min 0,0 UV-I 11,8 C 14,6 C 0,0 km/h (0 Bft)
24.06.2013 00:55 15,2 C 25,5 C 15,2 C 15,0 C 14,6 C 0,0 C 80 % 81 % 0 % 1013,4 hPa 0,0 l/m 0,0 km/h (0 Bft) O-NO 67 0 min 0,0 UV-I 11,8 C 14,6 C 0,0 km/h (0 Bft)
24.06.2013 01:06 15,1 C 25,5 C 15,2 C 14,9 C 14,4 C 0,0 C 81 % 81 % 0 % 1013,4 hPa 0,0 l/m 0,0 km/h (0 Bft) NW 315 0 min 0,0 UV-I 11,9 C 14,4 C 0,0 km/h (0 Bft)
24.06.2013 01:07 15,1 C 25,5 C 15,2 C 14,9 C 14,4 C 0,0 C 81 % 81 % 0 % 1013,4 hPa 0,0 l/m 0,0 km/h (0 Bft) NW 315 0 min 0,0 UV-I 11,9 C 14,4 C 0,0 km/h (0 Bft)
24.06.2013 01:10 15,1 C 25,5 C 15,1 C 14,8 C 14,3 C 0,0 C 81 % 82 % 0 % 1013,4 hPa 0,0 l/m 0,0 km/h (0 Bft) W 270 0 min 0,0 UV-I 11,9 C 14,3 C 0,0 km/h (0 Bft)
24.06.2013 01:15 15,0 C 25,5 C 15,1 C 14,8 C 14,3 C 0,0 C 82 % 82 % 0 % 1013,6 hPa 0,0 l/m 0,0 km/h (0 Bft) S-SW 202 0 min 0,0 UV-I 12,0 C 14,3 C 0,0 km/h (0 Bft)
24.06.2013 01:20 14,8 C 25,5 C 15,0 C 14,6 C 14,1 C 0,0 C 82 % 82 % 0 % 1013,6 hPa 0,0 l/m 0,0 km/h (0 Bft) O-SO 112 0 min 0,0 UV-I 11,8 C 14,1 C 0,0 km/h (0 Bft)
24.06.2013 01:25 14,8 C 25,5 C 14,9 C 14,6 C 14,1 C 0,0 C 82 % 82 % 0 % 1013,6 hPa 0,0 l/m 0,0 km/h (0 Bft) O 90 0 min 0,0 UV-I 11,8 C 14,1 C 0,0 km/h (0 Bft)
24.06.2013 01:30 14,7 C 25,5 C 14,9 C 14,5 C 14,0 C 0,0 C 82 % 82 % 0 % 1013,6 hPa 0,0 l/m 0,0 km/h (0 Bft) O 90 0 min 0,0 UV-I 11,7 C 14,0 C 0,0 km/h (0 Bft)
24.06.2013 01:35 14,7 C 25,5 C 14,9 C 14,5 C 14,1 C 0,0 C 82 % 82 % 0 % 1013,8 hPa 0,0 l/m 0,0 km/h (0 Bft) O 90 0 min 0,0 UV-I 11,7 C 14,1 C 0,0 km/h (0 Bft)
24.06.2013 01:40 14,6 C 25,5 C 14,9 C 14,4 C 14,1 C 0,0 C 82 % 82 % 0 % 1013,8 hPa 0,0 l/m 0,0 km/h (0 Bft) O-NO 67 0 min 0,0 UV-I 11,6 C 14,1 C 0,0 km/h (0 Bft)
24.06.2013 01:45 14,5 C 25,5 C 14,8 C 14,4 C 14,1 C 0,0 C 82 % 82 % 0 % 1013,8 hPa 0,0 l/m 0,0 km/h (0 Bft) O-NO 67 0 min 0,0 UV-I 11,5 C 14,1 C 0,0 km/h (0 Bft)
24.06.2013 01:50 14,5 C 25,4 C 14,8 C 14,4 C 14,1 C 0,0 C 82 % 82 % 0 % 1013,8 hPa 0,0 l/m 0,0 km/h (0 Bft) O-NO 67 0 min 0,0 UV-I 11,5 C 14,1 C 0,0 km/h (0 Bft)
24.06.2013 01:55 14,4 C 25,4 C 14,8 C 14,3 C 14,1 C 0,0 C 82 % 82 % 0 % 1014,2 hPa 0,0 l/m 0,2 km/h (0 Bft) NO 45 0 min 0,0 UV-I 11,4 C 14,1 C 0,0 km/h (0 Bft)
24.06.2013 02:00 14,5 C 25,4 C 14,8 C 14,4 C 14,2 C 0,0 C 82 % 82 % 0 % 1014,2 hPa 0,0 l/m 0,3 km/h (0 Bft) O-NO 67 0 min 0,0 UV-I 11,5 C 14,2 C 2,6 km/h (1 Bft)
24.06.2013 02:05 14,6 C 25,4 C 14,8 C 14,5 C 14,3 C 0,0 C 82 % 82 % 0 % 1014,2 hPa 0,0 l/m 0,2 km/h (0 Bft) O-NO 67 0 min 0,0 UV-I 11,6 C 14,3 C 0,0 km/h (0 Bft)
24.06.2013 02:10 14,6 C 25,4 C 14,8 C 14,4 C 14,1 C 0,0 C 82 % 82 % 0 % 1014,2 hPa 0,0 l/m 0,0 km/h (0 Bft) SW 225 0 min 0,0 UV-I 11,6 C 14,1 C 0,0 km/h (0 Bft)
24.06.2013 02:15 14,5 C 25,4 C 14,7 C 14,4 C 14,1 C 0,0 C 82 % 82 % 0 % 1014,1 hPa 0,0 l/m 0,0 km/h (0 Bft) S 180 0 min 0,0 UV-I 11,5 C 14,1 C 0,0 km/h (0 Bft)
24.06.2013 02:20 14,5 C 25,4 C 14,7 C 14,3 C 13,9 C 0,0 C 82 % 82 % 0 % 1014,1 hPa 0,0 l/m 0,0 km/h (0 Bft) N-NW 337 0 min 0,0 UV-I 11,5 C 13,9 C 0,0 km/h (0 Bft)
24.06.2013 02:25 14,4 C 25,4 C 14,7 C 14,2 C 13,9 C 0,0 C 82 % 82 % 0 % 1014,1 hPa 0,0 l/m 0,0 km/h (0 Bft) N-NW 337 0 min 0,0 UV-I 11,4 C 13,9 C 0,0 km/h (0 Bft)
24.06.2013 02:30 14,4 C 25,4 C 14,7 C 14,2 C 13,8 C 0,0 C 82 % 82 % 0 % 1014,1 hPa 0,0 l/m 0,0 km/h (0 Bft) SW 225 0 min 0,0 UV-I 11,4 C 13,8 C 0,0 km/h (0 Bft)
24.06.2013 02:35 14,3 C 25,4 C 14,7 C 14,1 C 13,7 C 0,0 C 83 % 82 % 0 % 1014,1 hPa 0,0 l/m 0,0 km/h (0 Bft) SW 225 0 min 0,0 UV-I 11,5 C 13,7 C 0,0 km/h (0 Bft)
24.06.2013 02:40 14,2 C 25,4 C 14,7 C 14,0 C 13,6 C 0,0 C 83 % 82 % 0 % 1014,1 hPa 0,0 l/m 0,0 km/h (0 Bft) W 270 0 min 0,0 UV-I 11,4 C 13,6 C 0,0 km/h (0 Bft)
24.06.2013 02:45 14,1 C 25,4 C 14,6 C 13,9 C 13,6 C 0,0 C 83 % 83 % 0 % 1014,1 hPa 0,0 l/m 0,0 km/h (0 Bft) N-NW 337 0 min 0,0 UV-I 11,3 C 13,6 C 0,0 km/h (0 Bft)
24.06.2013 02:50 14,0 C 25,4 C 14,5 C 13,9 C 13,6 C 0,0 C 83 % 83 % 0 % 1014,1 hPa 0,0 l/m 0,0 km/h (0 Bft) N-NO 22 0 min 0,0 UV-I 11,2 C 13,6 C 0,0 km/h (0 Bft)
24.06.2013 02:55 13,9 C 25,4 C 14,7 C 13,8 C 13,6 C 0,0 C 83 % 83 % 0 % 1014,2 hPa 0,0 l/m 0,0 km/h (0 Bft) NO 45 0 min 0,0 UV-I 11,1 C 13,6 C 0,0 km/h (0 Bft)
24.06.2013 03:00 13,8 C 25,4 C 14,5 C 13,7 C 13,6 C 0,0 C 83 % 83 % 0 % 1014,2 hPa 0,0 l/m 0,0 km/h (0 Bft) N-NO 22 0 min 0,0 UV-I 11,0 C 13,6 C 0,0 km/h (0 Bft)
24.06.2013 03:05 13,9 C 25,4 C 14,6 C 13,8 C 13,6 C 0,0 C 83 % 83 % 0 % 1014,2 hPa 0,0 l/m 0,0 km/h (0 Bft) NO 45 0 min 0,0 UV-I 11,1 C 13,6 C 0,0 km/h (0 Bft)
24.06.2013 03:10 13,7 C 25,4 C 14,4 C 13,6 C 13,5 C 0,0 C 83 % 83 % 0 % 1014,2 hPa 0,0 l/m 0,0 km/h (0 Bft) O-NO 67 0 min 0,0 UV-I 10,9 C 13,5 C 0,0 km/h (0 Bft)
24.06.2013 03:15 13,7 C 25,5 C 14,4 C 13,6 C 13,5 C 0,0 C 83 % 83 % 0 % 1014,1 hPa 0,0 l/m 0,0 km/h (0 Bft) O-NO 67 0 min 0,0 UV-I 10,9 C 13,5 C 0,0 km/h (0 Bft)
24.06.2013 03:20 13,6 C 25,5 C 14,5 C 13,6 C 13,6 C 0,0 C 84 % 83 % 0 % 1014,1 hPa 0,0 l/m 0,2 km/h (0 Bft) O-SO 112 0 min 0,0 UV-I 10,9 C 13,6 C 0,0 km/h (0 Bft)
24.06.2013 03:25 13,6 C 25,5 C 14,4 C 13,6 C 13,6 C 0,0 C 84 % 83 % 0 % 1014,1 hPa 0,0 l/m 0,2 km/h (0 Bft) O-NO 67 0 min 0,0 UV-I 10,9 C 13,6 C 0,0 km/h (0 Bft)
24.06.2013 03:30 13,6 C 25,5 C 14,4 C 13,6 C 13,6 C 0,0 C 84 % 83 % 0 % 1014,1 hPa 0,0 l/m 0,0 km/h (0 Bft) O-NO 67 0 min 0,0 UV-I 10,9 C 13,6 C 0,0 km/h (0 Bft)
24.06.2013 03:35 13,6 C 25,5 C 14,4 C 13,6 C 13,5 C 0,0 C 84 % 83 % 0 % 1014,1 hPa 0,0 l/m 0,0 km/h (0 Bft) O-NO 67 0 min 0,0 UV-I 10,9 C 13,5 C 0,0 km/h (0 Bft)
24.06.2013 03:40 13,5 C 25,4 C 14,3 C 13,5 C 13,5 C 0,0 C 84 % 83 % 0 % 1014,1 hPa 0,0 l/m 0,0 km/h (0 Bft) O-NO 67 0 min 0,0 UV-I 10,8 C 13,5 C 0,0 km/h (0 Bft)
24.06.2013 03:45 13,5 C 25,4 C 14,3 C 13,5 C 13,5 C 0,0 C 83 % 83 % 0 % 1014,1 hPa 0,0 l/m 0,0 km/h (0 Bft) O-NO 67 0 min 0,0 UV-I 10,7 C 13,5 C 0,0 km/h (0 Bft)
24.06.2013 03:50 13,5 C 25,4 C 14,2 C 13,5 C 13,4 C 0,0 C 83 % 83 % 0 % 1014,1 hPa 0,0 l/m 0,0 km/h (0 Bft) NW 315 0 min 0,0 UV-I 10,7 C 13,4 C 0,0 km/h (0 Bft)
24.06.2013 03:55 13,5 C 25,3 C 14,2 C 13,5 C 13,4 C 0,0 C 83 % 83 % 0 % 1014,2 hPa 0,0 l/m 0,0 km/h (0 Bft) NW 315 0 min 0,0 UV-I 10,7 C 13,4 C 0,0 km/h (0 Bft)
24.06.2013 04:00 13,5 C 25,3 C 14,2 C 13,5 C 13,4 C 0,0 C 83 % 83 % 0 % 1014,2 hPa 0,0 l/m 0,0 km/h (0 Bft) O-NO 67 0 min 0,0 UV-I 10,7 C 13,4 C 0,0 km/h (0 Bft)
24.06.2013 04:05 13,5 C 25,3 C 14,3 C 13,5 C 13,4 C 0,0 C 82 % 82 % 0 % 1014,2 hPa 0,0 l/m 0,0 km/h (0 Bft) NO 45 0 min 0,0 UV-I 10,5 C 13,4 C 0,0 km/h (0 Bft)
24.06.2013 04:10 13,6 C 25,3 C 14,3 C 13,5 C 13,4 C 0,0 C 82 % 83 % 0 % 1014,2 hPa 0,0 l/m 0,0 km/h (0 Bft) O-NO 67 0 min 0,0 UV-I 10,6 C 13,4 C 0,0 km/h (0 Bft)
24.06.2013 04:15 13,6 C 25,3 C 14,1 C 13,5 C 13,4 C 0,0 C 82 % 83 % 0 % 1014,5 hPa 0,0 l/m 0,0 km/h (0 Bft) O-NO 67 0 min 0,0 UV-I 10,6 C 13,4 C 0,0 km/h (0 Bft)
24.06.2013 04:20 13,6 C 25,3 C 14,1 C 13,5 C 13,3 C 0,0 C 82 % 82 % 0 % 1014,5 hPa 0,0 l/m 0,0 km/h (0 Bft) O-NO 67 0 min 0,0 UV-I 10,6 C 13,3 C 0,0 km/h (0 Bft)
24.06.2013 04:25 13,5 C 25,3 C 14,1 C 13,4 C 13,3 C 0,0 C 82 % 82 % 0 % 1014,5 hPa 0,0 l/m 0,0 km/h (0 Bft) O-NO 67 0 min 0,0 UV-I 10,5 C 13,3 C 0,0 km/h (0 Bft)
24.06.2013 04:30 13,5 C 25,3 C 14,0 C 13,4 C 13,3 C 0,0 C 82 % 82 % 0 % 1014,5 hPa 0,0 l/m 0,0 km/h (0 Bft) N-NW 337 0 min 0,0 UV-I 10,5 C 13,3 C 0,0 km/h (0 Bft)
24.06.2013 04:35 13,6 C 25,2 C 14,0 C 13,5 C 13,3 C 0,0 C 82 % 82 % 0 % 1014,4 hPa 0,0 l/m 0,0 km/h (0 Bft) O-NO 67 0 min 0,0 UV-I 10,6 C 13,3 C 0,0 km/h (0 Bft)
24.06.2013 04:40 13,5 C 25,2 C 14,1 C 13,4 C 13,3 C 0,0 C 82 % 82 % 0 % 1014,4 hPa 0,0 l/m 0,0 km/h (0 Bft) O-NO 67 0 min 0,0 UV-I 10,5 C 13,3 C 0,0 km/h (0 Bft)
24.06.2013 04:45 13,5 C 25,2 C 14,1 C 13,4 C 13,2 C 0,0 C 82 % 82 % 0 % 1014,4 hPa 0,0 l/m 0,0 km/h (0 Bft) O-NO 67 0 min 0,0 UV-I 10,5 C 13,2 C 0,0 km/h (0 Bft)
24.06.2013 04:50 13,5 C 25,2 C 14,1 C 13,4 C 13,2 C 0,0 C 82 % 82 % 0 % 1014,4 hPa 0,0 l/m 0,0 km/h (0 Bft) O 90 0 min 0,0 UV-I 10,5 C 13,2 C 0,0 km/h (0 Bft)
24.06.2013 04:55 13,5 C 25,3 C 14,0 C 13,4 C 13,2 C 0,0 C 83 % 82 % 0 % 1014,4 hPa 0,0 l/m 0,0 km/h (0 Bft) O-NO 67 0 min 0,0 UV-I 10,7 C 13,2 C 0,0 km/h (0 Bft)
24.06.2013 05:00 13,5 C 25,3 C 14,0 C 13,4 C 13,2 C 0,0 C 83 % 83 % 0 % 1014,4 hPa 0,0 l/m 0,0 km/h (0 Bft) SW 225 0 min 0,0 UV-I 10,7 C 13,2 C 0,0 km/h (0 Bft)
24.06.2013 05:05 13,4 C 25,2 C 14,1 C 13,3 C 13,1 C 0,0 C 83 % 83 % 0 % 1014,4 hPa 0,0 l/m 0,0 km/h (0 Bft) S 180 0 min 0,0 UV-I 10,6 C 13,1 C 0,0 km/h (0 Bft)
24.06.2013 05:10 13,3 C 25,3 C 14,0 C 13,2 C 13,0 C 0,0 C 83 % 83 % 0 % 1014,4 hPa 0,0 l/m 0,0 km/h (0 Bft) O 90 0 min 0,0 UV-I 10,5 C 13,0 C 0,0 km/h (0 Bft)
24.06.2013 05:15 13,2 C 25,3 C 14,0 C 13,2 C 13,1 C 0,0 C 83 % 83 % 0 % 1014,3 hPa 0,0 l/m 0,0 km/h (0 Bft) O-NO 67 0 min 0,0 UV-I 10,4 C 13,1 C 0,0 km/h (0 Bft)
24.06.2013 05:20 13,3 C 25,3 C 14,0 C 13,2 C 13,1 C 0,0 C 84 % 83 % 0 % 1014,3 hPa 0,0 l/m 0,0 km/h (0 Bft) O-NO 67 0 min 0,0 UV-I 10,7 C 13,1 C 0,0 km/h (0 Bft)
24.06.2013 05:25 13,2 C 25,2 C 13,9 C 13,2 C 13,1 C 0,0 C 84 % 83 % 0 % 1014,3 hPa 0,0 l/m 0,0 km/h (0 Bft) O-NO 67 0 min 0,0 UV-I 10,6 C 13,1 C 0,0 km/h (0 Bft)
24.06.2013 05:30 13,1 C 25,2 C 13,8 C 13,0 C 12,9 C 0,0 C 84 % 83 % 0 % 1014,3 hPa 0,0 l/m 0,0 km/h (0 Bft) W 270 0 min 0,0 UV-I 10,5 C 12,9 C 0,0 km/h (0 Bft)
24.06.2013 05:35 13,1 C 25,2 C 13,8 C 13,0 C 12,9 C 0,0 C 84 % 83 % 0 % 1014,7 hPa 0,0 l/m 0,0 km/h (0 Bft) W 270 0 min 0,0 UV-I 10,5 C 12,9 C 0,0 km/h (0 Bft)
24.06.2013 05:40 13,1 C 25,2 C 13,9 C 13,0 C 12,7 C 0,0 C 84 % 83 % 0 % 1014,7 hPa 0,0 l/m 0,0 km/h (0 Bft) NW 315 0 min 0,0 UV-I 10,5 C 12,7 C 0,0 km/h (0 Bft)
24.06.2013 05:45 13,0 C 25,3 C 13,7 C 12,9 C 12,7 C 0,0 C 84 % 83 % 0 % 1014,7 hPa 0,0 l/m 0,0 km/h (0 Bft) N-NW 337 0 min 0,0 UV-I 10,4 C 12,7 C 0,0 km/h (0 Bft)
24.06.2013 05:50 12,9 C 25,4 C 13,8 C 12,8 C 12,7 C 0,0 C 85 % 83 % 0 % 1014,7 hPa 0,0 l/m 0,0 km/h (0 Bft) O-NO 67 0 min 0,0 UV-I 10,4 C 12,7 C 0,0 km/h (0 Bft)
24.06.2013 05:55 12,9 C 25,4 C 13,9 C 12,8 C 12,7 C 0,0 C 85 % 83 % 0 % 1014,8 hPa 0,0 l/m 0,0 km/h (0 Bft) N-NO 22 0 min 0,0 UV-I 10,4 C 12,7 C 0,0 km/h (0 Bft)
24.06.2013 06:00 12,7 C 25,3 C 13,9 C 12,9 C 12,9 C 0,2 C 85 % 83 % 5 % 1014,8 hPa 0,0 l/m 0,0 km/h (0 Bft) W-SW 247 0 min 0,0 UV-I 10,2 C 12,9 C 0,0 km/h (0 Bft)
24.06.2013 06:05 12,7 C 25,3 C 13,9 C 12,9 C 12,9 C 0,2 C 85 % 83 % 5 % 1014,8 hPa 0,0 l/m 0,0 km/h (0 Bft) W 270 0 min 0,0 UV-I 10,2 C 12,9 C 0,0 km/h (0 Bft)
24.06.2013 06:10 12,6 C 25,3 C 14,0 C 12,9 C 12,9 C 0,3 C 85 % 83 % 8 % 1014,8 hPa 0,0 l/m 0,0 km/h (0 Bft) SW 225 0 min 0,0 UV-I 10,1 C 12,9 C 0,0 km/h (0 Bft)
24.06.2013 06:15 12,7 C 25,3 C 14,0 C 12,9 C 12,9 C 0,2 C 85 % 83 % 5 % 1015,1 hPa 0,0 l/m 0,0 km/h (0 Bft) W-NW 292 0 min 0,0 UV-I 10,2 C 12,9 C 0,0 km/h (0 Bft)
24.06.2013 06:20 12,6 C 25,3 C 13,9 C 12,8 C 12,8 C 0,2 C 85 % 83 % 5 % 1015,1 hPa 0,0 l/m 0,0 km/h (0 Bft) O 90 0 min 0,0 UV-I 10,1 C 12,8 C 0,0 km/h (0 Bft)
24.06.2013 06:25 12,5 C 25,4 C 13,8 C 12,7 C 12,7 C 0,2 C 85 % 83 % 5 % 1015,1 hPa 0,0 l/m 0,0 km/h (0 Bft) O-SO 112 0 min 0,0 UV-I 10,0 C 12,7 C 0,0 km/h (0 Bft)
24.06.2013 06:30 12,4 C 25,3 C 13,7 C 12,7 C 12,7 C 0,3 C 85 % 83 % 8 % 1015,1 hPa 0,0 l/m 0,0 km/h (0 Bft) O-NO 67 0 min 0,0 UV-I 9,9 C 12,7 C 0,0 km/h (0 Bft)
24.06.2013 06:35 12,5 C 25,3 C 13,7 C 12,8 C 12,8 C 0,3 C 85 % 83 % 8 % 1015,0 hPa 0,0 l/m 0,0 km/h (0 Bft) O-NO 67 0 min 0,0 UV-I 10,0 C 12,8 C 0,0 km/h (0 Bft)
24.06.2013 06:41 12,4 C 25,2 C 13,8 C 13,1 C 13,1 C 0,7 C 85 % 83 % 18 % 1015,0 hPa 0,0 l/m 0,0 km/h (0 Bft) N 0 0 min 0,0 UV-I 9,9 C 13,1 C 0,0 km/h (0 Bft)
24.06.2013 07:00 12,6 C 25,1 C 14,1 C 13,6 C 13,6 C 1,0 C 85 % 83 % 26 % 1014,9 hPa 0,0 l/m 0,0 km/h (0 Bft) N-NO 22 0 min 0,0 UV-I 10,1 C 13,6 C 0,0 km/h (0 Bft)
24.06.2013 07:05 12,7 C 25,1 C 14,0 C 13,6 C 13,6 C 0,9 C 85 % 83 % 24 % 1014,9 hPa 0,0 l/m 0,0 km/h (0 Bft) N-NO 22 0 min 0,0 UV-I 10,2 C 13,6 C 0,0 km/h (0 Bft)
24.06.2013 07:10 12,7 C 24,9 C 14,3 C 14,1 C 14,1 C 1,4 C 85 % 83 % 37 % 1014,9 hPa 0,0 l/m 0,0 km/h (0 Bft) O-NO 67 0 min 0,0 UV-I 10,2 C 14,1 C 0,0 km/h (0 Bft)
24.06.2013 07:15 12,8 C 24,9 C 14,4 C 14,4 C 14,4 C 1,6 C 84 % 83 % 42 % 1015,2 hPa 0,0 l/m 0,0 km/h (0 Bft) O-NO 67 0 min 0,0 UV-I 10,2 C 14,4 C 0,0 km/h (0 Bft)
24.06.2013 07:20 13,1 C 24,8 C 14,5 C 15,0 C 15,0 C 1,9 C 84 % 82 % 50 % 1015,2 hPa 0,0 l/m 0,0 km/h (0 Bft) O-SO 112 0 min 0,0 UV-I 10,5 C 15,0 C 0,0 km/h (0 Bft)
24.06.2013 07:25 13,2 C 24,8 C 14,5 C 15,2 C 15,2 C 2,0 C 84 % 82 % 53 % 1015,2 hPa 0,0 l/m 0,0 km/h (0 Bft) NO 45 0 min 0,0 UV-I 10,6 C 15,2 C 0,0 km/h (0 Bft)
24.06.2013 07:30 13,5 C 24,8 C 14,4 C 14,8 C 14,8 C 1,3 C 83 % 82 % 34 % 1015,2 hPa 0,0 l/m 0,0 km/h (0 Bft) SW 225 0 min 0,0 UV-I 10,7 C 14,8 C 0,0 km/h (0 Bft)
24.06.2013 07:35 13,5 C 24,8 C 14,3 C 14,5 C 14,5 C 1,0 C 83 % 82 % 26 % 1015,2 hPa 0,0 l/m 0,0 km/h (0 Bft) S 180 0 min 0,0 UV-I 10,7 C 14,5 C 0,0 km/h (0 Bft)
24.06.2013 07:40 13,5 C 24,9 C 14,2 C 14,3 C 14,3 C 0,8 C 82 % 82 % 21 % 1015,2 hPa 0,0 l/m 0,0 km/h (0 Bft) N-NO 22 0 min 0,0 UV-I 10,5 C 14,3 C 0,0 km/h (0 Bft)
24.06.2013 07:45 13,6 C 24,9 C 14,2 C 14,1 C 14,1 C 0,5 C 82 % 82 % 13 % 1015,2 hPa 0,0 l/m 0,0 km/h (0 Bft) N-NO 22 0 min 0,0 UV-I 10,6 C 14,1 C 0,0 km/h (0 Bft)
24.06.2013 07:50 13,6 C 24,9 C 14,1 C 13,9 C 13,9 C 0,3 C 82 % 82 % 8 % 1015,2 hPa 0,0 l/m 0,0 km/h (0 Bft) N-NO 22 0 min 0,0 UV-I 10,6 C 13,9 C 0,0 km/h (0 Bft)
24.06.2013 07:55 13,5 C 24,9 C 14,1 C 13,9 C 13,9 C 0,4 C 82 % 82 % 11 % 1015,4 hPa 0,0 l/m 0,0 km/h (0 Bft) O-NO 67 0 min 0,0 UV-I 10,5 C 13,9 C 0,0 km/h (0 Bft)
24.06.2013 08:00 13,4 C 24,9 C 14,3 C 14,0 C 14,0 C 0,6 C 82 % 82 % 16 % 1015,4 hPa 0,0 l/m 0,3 km/h (0 Bft) O-NO 67 0 min 0,0 UV-I 10,4 C 14,0 C 1,6 km/h (1 Bft)
24.06.2013 08:05 13,5 C 24,9 C 14,3 C 14,1 C 14,1 C 0,6 C 82 % 82 % 16 % 1015,4 hPa 0,0 l/m 0,6 km/h (0 Bft) O-SO 112 0 min 0,0 UV-I 10,5 C 14,1 C 0,0 km/h (0 Bft)
24.06.2013 08:10 13,5 C 24,9 C 14,3 C 14,3 C 14,3 C 0,8 C 83 % 82 % 21 % 1015,4 hPa 0,0 l/m 0,5 km/h (0 Bft) O 90 0 min 0,0 UV-I 10,7 C 14,3 C 0,0 km/h (0 Bft)
24.06.2013 08:15 13,5 C 24,9 C 14,4 C 14,5 C 14,5 C 1,0 C 83 % 82 % 26 % 1015,5 hPa 0,0 l/m 0,3 km/h (0 Bft) O 90 0 min 0,0 UV-I 10,7 C 14,5 C 0,0 km/h (0 Bft)
24.06.2013 08:20 13,6 C 24,8 C 14,6 C 14,9 C 14,9 C 1,3 C 83 % 82 % 34 % 1015,5 hPa 0,0 l/m 0,2 km/h (0 Bft) O-SO 112 0 min 0,0 UV-I 10,8 C 14,9 C 0,0 km/h (0 Bft)
24.06.2013 08:25 13,7 C 24,8 C 14,7 C 15,3 C 15,3 C 1,6 C 82 % 82 % 42 % 1015,5 hPa 0,0 l/m 0,2 km/h (0 Bft) O-NO 67 0 min 0,0 UV-I 10,7 C 15,3 C 0,0 km/h (0 Bft)
24.06.2013 08:30 14,1 C 24,7 C 14,9 C 16,1 C 16,1 C 2,0 C 83 % 82 % 53 % 1015,5 hPa 0,0 l/m 0,0 km/h (0 Bft) N-NO 22 0 min 0,0 UV-I 11,3 C 16,1 C 0,0 km/h (0 Bft)
24.06.2013 08:35 14,3 C 24,7 C 15,1 C 16,7 C 16,7 C 2,4 C 82 % 82 % 63 % 1015,4 hPa 0,0 l/m 0,0 km/h (0 Bft) W-SW 247 0 min 0,0 UV-I 11,3 C 16,7 C 2,3 km/h (1 Bft)
24.06.2013 08:40 14,7 C 24,7 C 15,3 C 17,4 C 17,4 C 2,7 C 81 % 82 % 71 % 1015,4 hPa 0,0 l/m 0,2 km/h (0 Bft) W 270 0 min 0,0 UV-I 11,5 C 17,4 C 0,0 km/h (0 Bft)
24.06.2013 08:45 14,8 C 24,7 C 15,5 C 18,2 C 18,2 C 3,4 C 81 % 81 % 89 % 1015,4 hPa 0,0 l/m 0,3 km/h (0 Bft) S-SW 202 5 min 0,0 UV-I 11,6 C 18,2 C 0,0 km/h (0 Bft)
24.06.2013 08:50 15,2 C 24,7 C 15,5 C 19,5 C 19,5 C 4,3 C 80 % 81 % 100 % 1015,4 hPa 0,0 l/m 0,2 km/h (0 Bft) SW 225 5 min 0,0 UV-I 11,8 C 19,5 C 0,0 km/h (0 Bft)
24.06.2013 08:55 15,5 C 24,7 C 15,6 C 19,5 C 19,5 C 4,0 C 80 % 81 % 100 % 1015,5 hPa 0,0 l/m 0,0 km/h (0 Bft) S-SO 157 5 min 0,0 UV-I 12,1 C 19,5 C 0,0 km/h (0 Bft)
24.06.2013 09:00 16,1 C 24,7 C 15,7 C 19,4 C 19,4 C 3,3 C 79 % 81 % 87 % 1015,5 hPa 0,0 l/m 0,0 km/h (0 Bft) S-SO 157 5 min 0,0 UV-I 12,5 C 19,4 C 0,0 km/h (0 Bft)
24.06.2013 09:05 16,4 C 24,7 C 15,9 C 19,5 C 19,5 C 3,1 C 78 % 81 % 82 % 1015,5 hPa 0,0 l/m 0,2 km/h (0 Bft) SW 225 0 min 0,0 UV-I 12,6 C 19,5 C 2,7 km/h (1 Bft)
24.06.2013 09:10 16,5 C 24,7 C 15,9 C 19,3 C 19,3 C 2,8 C 77 % 81 % 74 % 1015,5 hPa 0,0 l/m 1,1 km/h (1 Bft) NW 315 0 min 0,0 UV-I 12,5 C 19,3 C 4,3 km/h (1 Bft)
24.06.2013 09:15 16,7 C 24,7 C 16,0 C 19,4 C 19,4 C 2,7 C 77 % 80 % 71 % 1015,2 hPa 0,0 l/m 1,1 km/h (1 Bft) S-SW 202 0 min 0,0 UV-I 12,6 C 19,4 C 1,6 km/h (1 Bft)
24.06.2013 09:20 16,7 C 24,6 C 16,1 C 19,3 C 19,3 C 2,6 C 75 % 80 % 68 % 1015,2 hPa 0,0 l/m 1,4 km/h (1 Bft) SW 225 0 min 0,0 UV-I 12,2 C 19,3 C 5,0 km/h (1 Bft)
24.06.2013 09:25 16,8 C 24,6 C 16,3 C 19,3 C 19,3 C 2,5 C 75 % 79 % 66 % 1015,2 hPa 0,0 l/m 2,3 km/h (1 Bft) W 270 0 min 0,0 UV-I 12,3 C 19,3 C 0,0 km/h (0 Bft)
24.06.2013 09:30 16,9 C 24,6 C 16,4 C 19,5 C 19,5 C 2,6 C 74 % 79 % 68 % 1015,2 hPa 0,0 l/m 2,3 km/h (1 Bft) W 270 0 min 0,0 UV-I 12,2 C 19,5 C 4,5 km/h (1 Bft)
24.06.2013 09:35 16,9 C 24,6 C 16,5 C 19,4 C 19,4 C 2,5 C 72 % 79 % 66 % 1015,5 hPa 0,0 l/m 2,3 km/h (1 Bft) SO 135 0 min 0,0 UV-I 11,8 C 19,4 C 0,0 km/h (0 Bft)
24.06.2013 09:40 17,0 C 24,5 C 16,5 C 19,1 C 19,1 C 2,1 C 72 % 78 % 55 % 1015,5 hPa 0,0 l/m 1,9 km/h (1 Bft) S-SO 157 0 min 0,0 UV-I 11,9 C 19,1 C 5,3 km/h (1 Bft)
24.06.2013 09:45 17,0 C 24,5 C 16,6 C 19,6 C 19,6 C 2,6 C 72 % 78 % 68 % 1015,5 hPa 0,0 l/m 1,9 km/h (1 Bft) W-SW 247 0 min 0,0 UV-I 11,9 C 19,6 C 4,0 km/h (1 Bft)
24.06.2013 09:50 17,2 C 24,5 C 16,7 C 19,8 C 19,8 C 2,6 C 71 % 78 % 68 % 1015,5 hPa 0,0 l/m 2,7 km/h (1 Bft) SW 225 0 min 0,0 UV-I 11,9 C 19,8 C 8,2 km/h (2 Bft)
24.06.2013 09:55 17,2 C 24,5 C 16,7 C 19,6 C 19,6 C 2,4 C 70 % 77 % 63 % 1015,5 hPa 0,0 l/m 2,9 km/h (1 Bft) S 180 0 min 0,0 UV-I 11,7 C 19,6 C 0,0 km/h (0 Bft)
24.06.2013 10:00 17,3 C 24,5 C 16,7 C 19,6 C 19,6 C 2,3 C 70 % 77 % 61 % 1015,5 hPa 0,0 l/m 2,9 km/h (1 Bft) S 180 0 min 0,0 UV-I 11,8 C 19,6 C 6,1 km/h (2 Bft)
24.06.2013 10:05 17,1 C 24,5 C 16,7 C 19,2 C 19,2 C 2,1 C 70 % 77 % 55 % 1015,5 hPa 0,0 l/m 3,7 km/h (1 Bft) SW 225 0 min 0,0 UV-I 11,6 C 19,2 C 8,0 km/h (2 Bft)
24.06.2013 10:10 16,9 C 24,5 C 16,5 C 18,9 C 18,9 C 2,0 C 70 % 77 % 53 % 1015,5 hPa 0,0 l/m 4,8 km/h (1 Bft) W 270 0 min 0,0 UV-I 11,4 C 18,9 C 9,0 km/h (2 Bft)
24.06.2013 10:15 16,9 C 24,5 C 16,6 C 20,3 C 20,3 C 3,4 C 70 % 77 % 89 % 1015,3 hPa 0,0 l/m 3,5 km/h (1 Bft) W-SW 247 5 min 0,0 UV-I 11,4 C 20,3 C 0,0 km/h (0 Bft)
24.06.2013 10:20 17,1 C 24,5 C 16,7 C 21,8 C 21,8 C 4,7 C 69 % 77 % 100 % 1015,3 hPa 0,0 l/m 1,9 km/h (1 Bft) W-SW 247 5 min 0,0 UV-I 11,4 C 21,8 C 2,1 km/h (1 Bft)
24.06.2013 10:25 17,2 C 24,5 C 16,8 C 23,1 C 23,1 C 5,9 C 70 % 77 % 100 % 1015,3 hPa 0,0 l/m 1,1 km/h (1 Bft) S-SW 202 5 min 0,0 UV-I 11,7 C 23,1 C 3,5 km/h (1 Bft)
24.06.2013 10:30 17,5 C 24,5 C 16,9 C 23,6 C 23,6 C 6,1 C 68 % 76 % 100 % 1015,3 hPa 0,0 l/m 1,9 km/h (1 Bft) SO 135 5 min 0,0 UV-I 11,5 C 23,6 C 2,3 km/h (1 Bft)
24.06.2013 10:35 17,6 C 24,5 C 16,9 C 23,6 C 23,6 C 6,0 C 68 % 76 % 100 % 1015,6 hPa 0,0 l/m 2,3 km/h (1 Bft) SW 225 5 min 0,0 UV-I 11,6 C 23,6 C 4,8 km/h (1 Bft)
24.06.2013 10:40 17,7 C 24,5 C 17,0 C 23,1 C 23,1 C 5,4 C 68 % 75 % 100 % 1015,6 hPa 0,0 l/m 1,0 km/h (0 Bft) SO 135 5 min 0,0 UV-I 11,7 C 23,1 C 0,0 km/h (0 Bft)
24.06.2013 10:45 18,0 C 24,5 C 17,1 C 23,2 C 23,2 C 5,2 C 68 % 76 % 100 % 1015,6 hPa 0,0 l/m 1,3 km/h (1 Bft) W-SW 247 5 min 0,0 UV-I 12,0 C 23,2 C 2,3 km/h (1 Bft)
24.06.2013 10:50 18,5 C 24,5 C 17,5 C 24,3 C 24,3 C 5,8 C 68 % 75 % 100 % 1015,6 hPa 0,0 l/m 0,6 km/h (0 Bft) S 180 5 min 0,0 UV-I 12,5 C 24,3 C 0,0 km/h (0 Bft)
24.06.2013 10:55 18,8 C 24,5 C 17,6 C 24,4 C 24,4 C 5,6 C 66 % 75 % 100 % 1015,5 hPa 0,0 l/m 0,3 km/h (0 Bft) W 270 5 min 0,0 UV-I 12,3 C 24,4 C 2,6 km/h (1 Bft)
24.06.2013 11:00 18,6 C 24,5 C 17,5 C 22,8 C 22,8 C 4,2 C 65 % 75 % 100 % 1015,5 hPa 0,0 l/m 1,3 km/h (1 Bft) S 180 5 min 0,0 UV-I 11,9 C 22,8 C 4,0 km/h (1 Bft)
24.06.2013 11:05 18,4 C 24,5 C 17,6 C 21,9 C 21,9 C 3,5 C 66 % 75 % 92 % 1015,5 hPa 0,0 l/m 2,4 km/h (1 Bft) SW 225 5 min 0,0 UV-I 11,9 C 21,9 C 3,2 km/h (1 Bft)
24.06.2013 11:10 18,5 C 24,5 C 17,9 C 24,0 C 24,0 C 5,5 C 65 % 75 % 100 % 1015,5 hPa 0,0 l/m 2,9 km/h (1 Bft) W 270 5 min 0,0 UV-I 11,8 C 24,0 C 1,8 km/h (1 Bft)
24.06.2013 11:15 18,7 C 24,5 C 18,1 C 25,7 C 25,7 C 7,0 C 66 % 74 % 100 % 1015,7 hPa 0,0 l/m 2,7 km/h (1 Bft) N-NW 337 5 min 0,0 UV-I 12,2 C 25,7 C 1,6 km/h (1 Bft)
24.06.2013 11:20 19,1 C 24,4 C 18,2 C 27,1 C 27,1 C 8,0 C 65 % 74 % 100 % 1015,7 hPa 0,0 l/m 1,9 km/h (1 Bft) SO 135 5 min 0,0 UV-I 12,4 C 27,1 C 9,7 km/h (2 Bft)
24.06.2013 11:25 19,3 C 24,4 C 18,3 C 26,4 C 26,4 C 7,1 C 64 % 74 % 100 % 1015,7 hPa 0,0 l/m 1,8 km/h (1 Bft) S-SW 202 5 min 0,0 UV-I 12,3 C 26,4 C 4,5 km/h (1 Bft)
24.06.2013 11:30 19,2 C 24,5 C 18,3 C 24,5 C 24,5 C 5,3 C 64 % 74 % 100 % 1015,7 hPa 0,0 l/m 1,4 km/h (1 Bft) S 180 5 min 0,0 UV-I 12,2 C 24,5 C 2,3 km/h (1 Bft)
24.06.2013 11:35 19,1 C 24,5 C 18,4 C 24,7 C 24,7 C 5,6 C 62 % 73 % 100 % 1015,6 hPa 0,0 l/m 1,9 km/h (1 Bft) W-SW 247 5 min 0,0 UV-I 11,6 C 24,7 C 5,3 km/h (1 Bft)
24.06.2013 11:40 19,1 C 24,4 C 18,5 C 25,0 C 25,0 C 5,9 C 63 % 73 % 100 % 1015,6 hPa 0,0 l/m 3,2 km/h (1 Bft) W-NW 292 5 min 0,0 UV-I 11,9 C 25,0 C 0,0 km/h (0 Bft)
24.06.2013 11:45 19,2 C 24,4 C 18,5 C 24,5 C 24,5 C 5,3 C 63 % 72 % 100 % 1015,6 hPa 0,0 l/m 3,1 km/h (1 Bft) NW 315 5 min 0,0 UV-I 12,0 C 24,5 C 3,1 km/h (1 Bft)
24.06.2013 11:50 19,1 C 24,4 C 18,5 C 23,5 C 23,5 C 4,4 C 62 % 72 % 100 % 1015,6 hPa 0,0 l/m 2,7 km/h (1 Bft) N-NW 337 5 min 0,0 UV-I 11,6 C 23,5 C 0,0 km/h (0 Bft)
24.06.2013 11:55 19,3 C 24,4 C 18,7 C 24,7 C 24,7 C 5,4 C 63 % 72 % 100 % 1015,8 hPa 0,0 l/m 3,4 km/h (1 Bft) S 180 5 min 0,0 UV-I 12,1 C 24,7 C 4,2 km/h (1 Bft)
24.06.2013 12:00 19,1 C 24,4 C 18,7 C 23,9 C 23,9 C 4,8 C 61 % 71 % 100 % 1015,8 hPa 0,0 l/m 3,9 km/h (1 Bft) S-SW 202 5 min 0,0 UV-I 11,4 C 23,9 C 9,8 km/h (2 Bft)
24.06.2013 12:05 19,1 C 24,4 C 18,7 C 23,3 C 23,3 C 4,2 C 62 % 71 % 100 % 1015,8 hPa 0,0 l/m 4,2 km/h (1 Bft) SW 225 5 min 0,0 UV-I 11,6 C 23,3 C 8,9 km/h (2 Bft)
24.06.2013 12:10 18,8 C 24,5 C 18,4 C 22,0 C 22,0 C 3,2 C 62 % 71 % 84 % 1015,8 hPa 0,0 l/m 4,8 km/h (1 Bft) W-SW 247 0 min 0,0 UV-I 11,4 C 22,0 C 5,1 km/h (1 Bft)
24.06.2013 12:15 18,7 C 24,5 C 18,4 C 21,4 C 21,4 C 2,7 C 63 % 71 % 71 % 1016,0 hPa 0,0 l/m 4,3 km/h (1 Bft) SW 225 0 min 0,0 UV-I 11,5 C 21,4 C 3,7 km/h (1 Bft)
24.06.2013 12:20 18,7 C 24,5 C 18,7 C 21,4 C 21,4 C 2,7 C 66 % 72 % 71 % 1016,0 hPa 0,0 l/m 4,3 km/h (1 Bft) W 270 0 min 0,0 UV-I 12,2 C 21,4 C 4,2 km/h (1 Bft)
24.06.2013 12:25 19,1 C 24,5 C 19,1 C 23,2 C 23,2 C 4,1 C 66 % 72 % 100 % 1016,0 hPa 0,0 l/m 4,0 km/h (1 Bft) W-SW 247 5 min 0,0 UV-I 12,6 C 23,2 C 1,9 km/h (1 Bft)
24.06.2013 12:30 19,5 C 24,5 C 19,0 C 24,1 C 24,1 C 4,6 C 63 % 71 % 100 % 1016,0 hPa 0,0 l/m 3,1 km/h (1 Bft) W 270 5 min 0,0 UV-I 12,3 C 24,1 C 2,9 km/h (1 Bft)
24.06.2013 12:35 19,5 C 24,5 C 18,9 C 23,5 C 23,5 C 4,0 C 63 % 72 % 100 % 1015,8 hPa 0,0 l/m 3,1 km/h (1 Bft) W-SW 247 5 min 0,0 UV-I 12,3 C 23,5 C 9,3 km/h (2 Bft)
24.06.2013 12:41 19,1 C 24,4 C 18,8 C 22,4 C 22,4 C 3,3 C 62 % 70 % 87 % 1015,8 hPa 0,0 l/m 3,9 km/h (1 Bft) N 0 6 min 0,0 UV-I 11,6 C 22,4 C 4,0 km/h (1 Bft)
24.06.2013 13:00 19,2 C 24,5 C 18,9 C 22,5 C 22,5 C 3,3 C 62 % 71 % 87 % 1016,1 hPa 0,0 l/m 4,0 km/h (1 Bft) W 270 19 min 0,0 UV-I 11,7 C 22,5 C 3,7 km/h (1 Bft)
24.06.2013 13:05 19,3 C 24,5 C 18,8 C 22,5 C 22,5 C 3,2 C 63 % 71 % 84 % 1016,1 hPa 0,0 l/m 3,4 km/h (1 Bft) O-SO 112 0 min 0,0 UV-I 12,1 C 22,5 C 2,7 km/h (1 Bft)
24.06.2013 13:10 19,2 C 24,5 C 18,7 C 21,8 C 21,8 C 2,6 C 63 % 71 % 68 % 1016,1 hPa 0,0 l/m 3,4 km/h (1 Bft) W-SW 247 0 min 0,0 UV-I 12,0 C 21,8 C 4,8 km/h (1 Bft)
24.06.2013 13:15 19,1 C 24,6 C 18,8 C 21,7 C 21,7 C 2,6 C 63 % 72 % 68 % 1016,0 hPa 0,0 l/m 3,7 km/h (1 Bft) SW 225 0 min 0,0 UV-I 11,9 C 21,7 C 1,8 km/h (1 Bft)
24.06.2013 13:20 19,1 C 24,5 C 19,1 C 22,2 C 22,2 C 3,1 C 64 % 72 % 82 % 1016,0 hPa 0,0 l/m 3,7 km/h (1 Bft) SW 225 0 min 0,0 UV-I 12,1 C 22,2 C 3,7 km/h (1 Bft)
24.06.2013 13:25 19,5 C 24,5 C 19,2 C 23,1 C 23,1 C 3,6 C 64 % 72 % 95 % 1016,0 hPa 0,0 l/m 3,5 km/h (1 Bft) W-SW 247 5 min 0,0 UV-I 12,5 C 23,1 C 6,0 km/h (2 Bft)
24.06.2013 13:30 19,7 C 24,5 C 19,4 C 23,3 C 23,3 C 3,6 C 64 % 71 % 95 % 1016,0 hPa 0,0 l/m 2,6 km/h (1 Bft) SW 225 5 min 0,0 UV-I 12,7 C 23,3 C 5,3 km/h (1 Bft)
24.06.2013 13:35 20,0 C 24,5 C 19,4 C 23,4 C 23,4 C 3,4 C 64 % 72 % 89 % 1016,1 hPa 0,0 l/m 2,7 km/h (1 Bft) NW 315 5 min 0,0 UV-I 13,0 C 23,4 C 4,7 km/h (1 Bft)
24.06.2013 13:40 20,3 C 24,5 C 19,9 C 24,5 C 24,5 C 4,2 C 62 % 71 % 100 % 1016,1 hPa 0,0 l/m 3,1 km/h (1 Bft) W-SW 247 5 min 0,0 UV-I 12,8 C 24,5 C 6,9 km/h (2 Bft)
24.06.2013 13:45 20,5 C 24,5 C 20,0 C 24,7 C 24,7 C 4,2 C 61 % 70 % 100 % 1016,1 hPa 0,0 l/m 3,5 km/h (1 Bft) W 270 5 min 0,0 UV-I 12,7 C 24,7 C 6,0 km/h (2 Bft)
24.06.2013 13:50 20,7 C 24,5 C 20,3 C 25,0 C 25,0 C 4,3 C 61 % 70 % 100 % 1016,1 hPa 0,0 l/m 4,5 km/h (1 Bft) NW 315 5 min 0,0 UV-I 12,9 C 25,0 C 10,9 km/h (2 Bft)
24.06.2013 13:55 21,1 C 24,5 C 20,5 C 25,6 C 25,6 C 4,5 C 61 % 69 % 100 % 1015,9 hPa 0,0 l/m 4,0 km/h (1 Bft) W-SW 247 5 min 0,0 UV-I 13,3 C 25,6 C 2,1 km/h (1 Bft)
24.06.2013 14:00 20,9 C 24,5 C 19,9 C 24,5 C 24,5 C 3,6 C 59 % 68 % 95 % 1015,9 hPa 0,0 l/m 4,2 km/h (1 Bft) S 180 5 min 0,0 UV-I 12,6 C 24,5 C 12,1 km/h (2 Bft)
24.06.2013 14:05 20,3 C 24,5 C 19,6 C 23,3 C 23,3 C 3,0 C 59 % 69 % 79 % 1015,9 hPa 0,0 l/m 5,0 km/h (1 Bft) W-SW 247 0 min 0,0 UV-I 12,0 C 23,3 C 13,7 km/h (3 Bft)
24.06.2013 14:10 19,7 C 24,5 C 19,2 C 21,6 C 21,6 C 1,9 C 60 % 69 % 50 % 1015,9 hPa 0,0 l/m 5,6 km/h (1 Bft) S 180 0 min 0,0 UV-I 11,7 C 21,6 C 3,4 km/h (1 Bft)
24.06.2013 14:15 19,3 C 24,5 C 19,2 C 21,3 C 21,3 C 2,0 C 63 % 70 % 53 % 1016,3 hPa 0,0 l/m 4,7 km/h (1 Bft) SW 225 0 min 0,0 UV-I 12,1 C 21,3 C 2,9 km/h (1 Bft)
24.06.2013 14:20 19,5 C 24,5 C 19,7 C 22,4 C 22,4 C 2,9 C 63 % 69 % 76 % 1016,3 hPa 0,0 l/m 3,5 km/h (1 Bft) SW 225 0 min 0,0 UV-I 12,3 C 22,4 C 11,1 km/h (2 Bft)
24.06.2013 14:25 19,5 C 24,5 C 19,6 C 23,0 C 23,0 C 3,5 C 63 % 68 % 92 % 1016,3 hPa 0,0 l/m 4,3 km/h (1 Bft) W 270 5 min 0,0 UV-I 12,3 C 23,0 C 2,7 km/h (1 Bft)
24.06.2013 14:30 19,6 C 24,5 C 19,9 C 23,5 C 23,5 C 3,9 C 63 % 69 % 100 % 1016,3 hPa 0,0 l/m 5,0 km/h (1 Bft) W-SW 247 5 min 0,0 UV-I 12,4 C 23,5 C 2,9 km/h (1 Bft)
24.06.2013 14:35 19,6 C 24,5 C 19,7 C 23,4 C 23,4 C 3,8 C 62 % 69 % 100 % 1016,1 hPa 0,0 l/m 4,3 km/h (1 Bft) SW 225 5 min 0,0 UV-I 12,1 C 23,4 C 6,9 km/h (2 Bft)
24.06.2013 14:40 19,4 C 24,5 C 19,5 C 22,7 C 22,7 C 3,3 C 62 % 69 % 87 % 1016,1 hPa 0,0 l/m 4,2 km/h (1 Bft) SW 225 5 min 0,0 UV-I 11,9 C 22,7 C 1,9 km/h (1 Bft)
24.06.2013 14:45 19,3 C 24,5 C 19,5 C 22,4 C 22,4 C 3,1 C 61 % 68 % 82 % 1016,1 hPa 0,0 l/m 4,3 km/h (1 Bft) W-SW 247 0 min 0,0 UV-I 11,6 C 22,4 C 5,5 km/h (1 Bft)
24.06.2013 14:50 19,1 C 24,5 C 19,4 C 22,0 C 22,0 C 2,9 C 62 % 69 % 76 % 1016,1 hPa 0,0 l/m 3,7 km/h (1 Bft) SW 225 0 min 0,0 UV-I 11,6 C 22,0 C 6,4 km/h (2 Bft)
24.06.2013 14:55 19,1 C 24,5 C 19,3 C 21,8 C 21,8 C 2,7 C 62 % 68 % 71 % 1016,2 hPa 0,0 l/m 4,3 km/h (1 Bft) NW 315 0 min 0,0 UV-I 11,6 C 21,8 C 3,7 km/h (1 Bft)
24.06.2013 15:00 19,0 C 24,5 C 19,2 C 21,7 C 21,7 C 2,7 C 60 % 67 % 71 % 1016,2 hPa 0,0 l/m 4,5 km/h (1 Bft) W-SW 247 0 min 0,0 UV-I 11,1 C 21,7 C 3,9 km/h (1 Bft)
24.06.2013 15:05 19,0 C 24,5 C 19,2 C 21,8 C 21,8 C 2,8 C 60 % 67 % 74 % 1016,2 hPa 0,0 l/m 4,2 km/h (1 Bft) W-SW 247 0 min 0,0 UV-I 11,1 C 21,8 C 2,6 km/h (1 Bft)
24.06.2013 15:10 19,2 C 24,5 C 19,4 C 22,5 C 22,5 C 3,3 C 59 % 67 % 87 % 1016,2 hPa 0,0 l/m 3,9 km/h (1 Bft) S 180 5 min 0,0 UV-I 11,0 C 22,5 C 5,1 km/h (1 Bft)
24.06.2013 15:15 19,2 C 24,5 C 19,5 C 22,5 C 22,5 C 3,3 C 59 % 67 % 87 % 1015,9 hPa 0,0 l/m 4,0 km/h (1 Bft) SW 225 5 min 0,0 UV-I 11,0 C 22,5 C 9,0 km/h (2 Bft)
24.06.2013 15:20 19,5 C 24,6 C 19,7 C 23,3 C 23,3 C 3,8 C 62 % 68 % 100 % 1015,9 hPa 0,0 l/m 4,0 km/h (1 Bft) NW 315 5 min 0,0 UV-I 12,0 C 23,3 C 2,4 km/h (1 Bft)
24.06.2013 15:25 19,8 C 24,6 C 19,7 C 23,7 C 23,7 C 3,9 C 59 % 66 % 100 % 1015,9 hPa 0,0 l/m 3,7 km/h (1 Bft) SW 225 5 min 0,0 UV-I 11,6 C 23,7 C 6,8 km/h (2 Bft)
24.06.2013 15:30 19,5 C 24,6 C 19,5 C 23,1 C 23,1 C 3,6 C 60 % 67 % 95 % 1015,9 hPa 0,0 l/m 3,9 km/h (1 Bft) S-SO 157 5 min 0,0 UV-I 11,5 C 23,1 C 4,0 km/h (1 Bft)
24.06.2013 15:35 19,4 C 24,6 C 19,5 C 22,8 C 22,8 C 3,4 C 60 % 67 % 89 % 1016,1 hPa 0,0 l/m 3,7 km/h (1 Bft) W 270 5 min 0,0 UV-I 11,4 C 22,8 C 1,8 km/h (1 Bft)
24.06.2013 15:40 19,4 C 24,6 C 19,5 C 22,6 C 22,6 C 3,2 C 61 % 67 % 84 % 1016,1 hPa 0,0 l/m 3,4 km/h (1 Bft) W-SW 247 0 min 0,0 UV-I 11,7 C 22,6 C 7,6 km/h (2 Bft)
24.06.2013 15:45 19,3 C 24,6 C 19,5 C 22,6 C 22,6 C 3,3 C 61 % 68 % 87 % 1016,1 hPa 0,0 l/m 2,7 km/h (1 Bft) SW 225 5 min 0,0 UV-I 11,6 C 22,6 C 2,6 km/h (1 Bft)
24.06.2013 15:50 19,5 C 24,6 C 19,5 C 22,5 C 22,5 C 3,0 C 62 % 69 % 79 % 1016,1 hPa 0,0 l/m 2,7 km/h (1 Bft) W-NW 292 0 min 0,0 UV-I 12,0 C 22,5 C 3,9 km/h (1 Bft)
24.06.2013 15:55 19,4 C 24,6 C 19,4 C 22,4 C 22,4 C 3,0 C 61 % 68 % 79 % 1016,1 hPa 0,0 l/m 3,2 km/h (1 Bft) W-NW 292 0 min 0,0 UV-I 11,7 C 22,4 C 3,2 km/h (1 Bft)
24.06.2013 16:00 19,4 C 24,6 C 19,3 C 22,2 C 22,2 C 2,8 C 61 % 68 % 74 % 1016,1 hPa 0,0 l/m 4,0 km/h (1 Bft) W-SW 247 0 min 0,0 UV-I 11,7 C 22,2 C 5,6 km/h (1 Bft)
24.06.2013 16:05 19,5 C 24,6 C 19,4 C 22,2 C 22,2 C 2,7 C 60 % 68 % 71 % 1016,1 hPa 0,0 l/m 3,9 km/h (1 Bft) W 270 0 min 0,0 UV-I 11,5 C 22,2 C 3,9 km/h (1 Bft)
24.06.2013 16:10 19,5 C 24,6 C 19,4 C 22,4 C 22,4 C 2,9 C 60 % 68 % 76 % 1016,1 hPa 0,0 l/m 3,4 km/h (1 Bft) SW 225 0 min 0,0 UV-I 11,5 C 22,4 C 3,9 km/h (1 Bft)
24.06.2013 16:15 19,5 C 24,6 C 19,5 C 22,6 C 22,6 C 3,1 C 60 % 68 % 82 % 1015,7 hPa 0,0 l/m 3,2 km/h (1 Bft) N-NO 22 0 min 0,0 UV-I 11,5 C 22,6 C 0,0 km/h (0 Bft)
24.06.2013 16:20 19,7 C 24,6 C 19,6 C 23,4 C 23,4 C 3,7 C 59 % 67 % 97 % 1015,7 hPa 0,0 l/m 1,9 km/h (1 Bft) S 180 5 min 0,0 UV-I 11,5 C 23,4 C 1,8 km/h (1 Bft)
24.06.2013 16:25 20,0 C 24,6 C 19,6 C 24,1 C 24,1 C 4,1 C 59 % 67 % 100 % 1015,7 hPa 0,0 l/m 0,6 km/h (0 Bft) N-NO 22 5 min 0,0 UV-I 11,7 C 24,1 C 0,0 km/h (0 Bft)
24.06.2013 16:30 20,5 C 24,6 C 19,6 C 24,6 C 24,6 C 4,1 C 56 % 63 % 100 % 1015,7 hPa 0,0 l/m 1,3 km/h (1 Bft) S 180 5 min 0,0 UV-I 11,4 C 24,6 C 6,1 km/h (2 Bft)
24.06.2013 16:35 20,4 C 24,6 C 19,7 C 24,5 C 24,5 C 4,1 C 56 % 66 % 100 % 1016,2 hPa 0,0 l/m 1,6 km/h (1 Bft) W-SW 247 5 min 0,0 UV-I 11,3 C 24,5 C 0,0 km/h (0 Bft)
24.06.2013 16:40 20,5 C 24,6 C 19,9 C 24,7 C 24,7 C 4,2 C 55 % 62 % 100 % 1016,2 hPa 0,0 l/m 1,9 km/h (1 Bft) N-NW 337 5 min 0,0 UV-I 11,1 C 24,7 C 3,2 km/h (1 Bft)
24.06.2013 16:45 20,5 C 24,6 C 19,9 C 24,8 C 24,8 C 4,3 C 56 % 62 % 100 % 1016,2 hPa 0,0 l/m 1,4 km/h (1 Bft) NW 315 5 min 0,0 UV-I 11,4 C 24,8 C 2,4 km/h (1 Bft)
24.06.2013 16:50 20,7 C 24,6 C 19,7 C 24,5 C 24,5 C 3,8 C 55 % 64 % 100 % 1016,2 hPa 0,0 l/m 1,9 km/h (1 Bft) S 180 5 min 0,0 UV-I 11,3 C 24,5 C 0,0 km/h (0 Bft)
24.06.2013 16:55 20,9 C 24,6 C 19,9 C 24,5 C 24,5 C 3,6 C 56 % 64 % 95 % 1016,1 hPa 0,0 l/m 1,4 km/h (1 Bft) NO 45 5 min 0,0 UV-I 11,8 C 24,5 C 0,0 km/h (0 Bft)
24.06.2013 17:00 21,0 C 24,6 C 19,9 C 24,5 C 24,5 C 3,5 C 57 % 65 % 92 % 1016,1 hPa 0,0 l/m 1,0 km/h (0 Bft) S 180 5 min 0,0 UV-I 12,1 C 24,5 C 4,3 km/h (1 Bft)
24.06.2013 17:05 21,1 C 24,6 C 19,9 C 24,3 C 24,3 C 3,2 C 55 % 66 % 84 % 1016,1 hPa 0,0 l/m 2,1 km/h (1 Bft) SW 225 0 min 0,0 UV-I 11,7 C 24,3 C 5,5 km/h (1 Bft)
24.06.2013 17:10 20,7 C 24,6 C 19,6 C 23,5 C 23,5 C 2,8 C 54 % 63 % 74 % 1016,1 hPa 0,0 l/m 2,6 km/h (1 Bft) SW 225 0 min 0,0 UV-I 11,1 C 23,5 C 0,0 km/h (0 Bft)
24.06.2013 17:15 20,6 C 24,6 C 19,6 C 23,3 C 23,3 C 2,7 C 56 % 65 % 71 % 1015,9 hPa 0,0 l/m 1,8 km/h (1 Bft) S 180 0 min 0,0 UV-I 11,5 C 23,3 C 1,8 km/h (1 Bft)
24.06.2013 17:20 20,7 C 24,6 C 19,5 C 23,0 C 23,0 C 2,3 C 56 % 64 % 61 % 1015,9 hPa 0,0 l/m 1,0 km/h (0 Bft) N-NW 337 0 min 0,0 UV-I 11,6 C 23,0 C 0,0 km/h (0 Bft)
24.06.2013 17:25 20,5 C 24,6 C 19,5 C 22,9 C 22,9 C 2,4 C 56 % 65 % 63 % 1015,9 hPa 0,0 l/m 1,3 km/h (1 Bft) W 270 0 min 0,0 UV-I 11,4 C 22,9 C 2,1 km/h (1 Bft)
24.06.2013 17:30 20,5 C 24,6 C 19,5 C 22,7 C 22,7 C 2,2 C 56 % 66 % 58 % 1015,9 hPa 0,0 l/m 1,0 km/h (0 Bft) W-SW 247 0 min 0,0 UV-I 11,4 C 22,7 C 0,0 km/h (0 Bft)
24.06.2013 17:35 20,5 C 24,6 C 19,5 C 22,6 C 22,6 C 2,1 C 56 % 67 % 55 % 1015,9 hPa 0,0 l/m 1,1 km/h (1 Bft) S-SO 157 0 min 0,0 UV-I 11,4 C 22,6 C 0,0 km/h (0 Bft)
24.06.2013 17:40 20,5 C 24,6 C 19,3 C 22,3 C 22,3 C 1,8 C 56 % 66 % 47 % 1015,9 hPa 0,0 l/m 0,8 km/h (0 Bft) S-SO 157 0 min 0,0 UV-I 11,4 C 22,3 C 0,0 km/h (0 Bft)
24.06.2013 17:45 20,3 C 24,7 C 19,3 C 22,1 C 22,1 C 1,8 C 57 % 68 % 47 % 1015,9 hPa 0,0 l/m 0,3 km/h (0 Bft) O-SO 112 0 min 0,0 UV-I 11,5 C 22,1 C 0,0 km/h (0 Bft)
24.06.2013 17:50 20,3 C 24,7 C 19,2 C 22,0 C 22,0 C 1,7 C 58 % 66 % 45 % 1015,9 hPa 0,0 l/m 0,2 km/h (0 Bft) O-SO 112 0 min 0,0 UV-I 11,8 C 22,0 C 0,0 km/h (0 Bft)
24.06.2013 17:55 20,1 C 24,7 C 19,2 C 22,0 C 22,0 C 1,9 C 58 % 67 % 50 % 1016,1 hPa 0,0 l/m 0,3 km/h (0 Bft) O-NO 67 0 min 0,0 UV-I 11,6 C 22,0 C 2,3 km/h (1 Bft)
24.06.2013 18:00 20,0 C 24,7 C 19,2 C 22,0 C 22,0 C 2,0 C 59 % 66 % 53 % 1016,1 hPa 0,0 l/m 0,6 km/h (0 Bft) O-NO 67 0 min 0,0 UV-I 11,7 C 22,0 C 2,1 km/h (1 Bft)
24.06.2013 18:05 20,0 C 24,7 C 19,3 C 22,1 C 22,1 C 2,1 C 59 % 66 % 55 % 1016,1 hPa 0,0 l/m 0,6 km/h (0 Bft) O-NO 67 0 min 0,0 UV-I 11,7 C 22,1 C 0,0 km/h (0 Bft)
24.06.2013 18:10 20,0 C 24,7 C 19,5 C 23,0 C 23,0 C 3,0 C 59 % 64 % 79 % 1016,1 hPa 0,0 l/m 0,5 km/h (0 Bft) O 90 0 min 0,0 UV-I 11,7 C 23,0 C 2,3 km/h (1 Bft)
24.06.2013 18:15 20,1 C 24,7 C 19,5 C 23,4 C 23,4 C 3,3 C 59 % 65 % 87 % 1016,0 hPa 0,0 l/m 0,3 km/h (0 Bft) NW 315 5 min 0,0 UV-I 11,8 C 23,4 C 0,0 km/h (0 Bft)
24.06.2013 18:20 20,2 C 24,7 C 19,6 C 24,1 C 24,1 C 3,9 C 59 % 67 % 100 % 1016,0 hPa 0,0 l/m 0,5 km/h (0 Bft) S-SW 202 5 min 0,0 UV-I 11,9 C 24,1 C 0,0 km/h (0 Bft)
24.06.2013 18:25 20,5 C 24,7 C 19,6 C 24,1 C 24,1 C 3,6 C 59 % 67 % 95 % 1016,0 hPa 0,0 l/m 0,5 km/h (0 Bft) S 180 5 min 0,0 UV-I 12,2 C 24,1 C 1,6 km/h (1 Bft)
24.06.2013 18:30 20,4 C 24,7 C 19,5 C 23,7 C 23,7 C 3,3 C 58 % 66 % 87 % 1016,0 hPa 0,0 l/m 0,6 km/h (0 Bft) N-NW 337 5 min 0,0 UV-I 11,9 C 23,7 C 2,4 km/h (1 Bft)
24.06.2013 18:35 20,5 C 24,7 C 19,5 C 23,1 C 23,1 C 2,6 C 58 % 65 % 68 % 1015,9 hPa 0,0 l/m 0,8 km/h (0 Bft) N-NW 337 0 min 0,0 UV-I 11,9 C 23,1 C 3,2 km/h (1 Bft)
24.06.2013 18:41 20,3 C 24,7 C 19,2 C 22,3 C 22,3 C 2,0 C 58 % 65 % 53 % 1015,9 hPa 0,0 l/m 0,6 km/h (0 Bft) N 0 0 min 0,0 UV-I 11,8 C 22,3 C 0,0 km/h (0 Bft)
24.06.2013 19:00 20,0 C 24,7 C 19,0 C 20,9 C 20,9 C 0,9 C 59 % 66 % 24 % 1015,9 hPa 0,0 l/m 0,5 km/h (0 Bft) N-NO 22 0 min 0,0 UV-I 11,7 C 20,9 C 0,0 km/h (0 Bft)
24.06.2013 19:05 20,0 C 24,7 C 18,9 C 20,7 C 20,7 C 0,7 C 59 % 67 % 18 % 1015,9 hPa 0,0 l/m 0,3 km/h (0 Bft) S-SO 157 0 min 0,0 UV-I 11,7 C 20,7 C 0,0 km/h (0 Bft)
24.06.2013 19:10 19,9 C 24,7 C 18,8 C 20,5 C 20,5 C 0,6 C 60 % 68 % 16 % 1015,9 hPa 0,0 l/m 0,5 km/h (0 Bft) W-SW 247 0 min 0,0 UV-I 11,9 C 20,5 C 1,8 km/h (1 Bft)
24.06.2013 19:15 19,8 C 24,7 C 18,7 C 20,3 C 20,3 C 0,5 C 61 % 69 % 13 % 1016,1 hPa 0,0 l/m 1,3 km/h (1 Bft) W-SW 247 0 min 0,0 UV-I 12,1 C 20,3 C 5,3 km/h (1 Bft)
24.06.2013 19:20 19,2 C 24,7 C 18,6 C 19,6 C 19,6 C 0,4 C 63 % 69 % 11 % 1016,1 hPa 0,0 l/m 4,0 km/h (1 Bft) S-SW 202 0 min 0,0 UV-I 12,0 C 19,6 C 10,9 km/h (2 Bft)
24.06.2013 19:25 18,8 C 24,7 C 18,5 C 19,2 C 19,2 C 0,4 C 64 % 70 % 11 % 1016,1 hPa 0,0 l/m 5,6 km/h (1 Bft) S-SW 202 0 min 0,0 UV-I 11,8 C 19,2 C 8,5 km/h (2 Bft)
24.06.2013 19:30 18,5 C 24,8 C 18,2 C 18,8 C 18,8 C 0,3 C 66 % 71 % 8 % 1016,1 hPa 0,0 l/m 5,1 km/h (1 Bft) S 180 0 min 0,0 UV-I 12,0 C 18,8 C 7,1 km/h (2 Bft)
24.06.2013 19:35 18,5 C 24,8 C 18,1 C 18,6 C 18,6 C 0,1 C 67 % 71 % 3 % 1016,0 hPa 0,0 l/m 4,8 km/h (1 Bft) N 360 0 min 0,0 UV-I 12,3 C 18,6 C 8,2 km/h (2 Bft)
24.06.2013 19:40 18,1 C 24,8 C 18,0 C 18,2 C 18,2 C 0,1 C 67 % 71 % 3 % 1016,0 hPa 0,0 l/m 4,8 km/h (1 Bft) NW 315 0 min 0,0 UV-I 11,9 C 18,2 C 14,6 km/h (3 Bft)
24.06.2013 19:45 18,1 C 24,8 C 17,9 C 18,1 C 18,1 C 0,0 C 67 % 71 % 0 % 1016,0 hPa 0,0 l/m 4,8 km/h (1 Bft) W 270 0 min 0,0 UV-I 11,9 C 18,1 C 7,2 km/h (2 Bft)
24.06.2013 19:50 17,8 C 24,8 C 17,8 C 17,9 C 17,9 C 0,1 C 67 % 71 % 3 % 1016,0 hPa 0,0 l/m 4,2 km/h (1 Bft) SW 225 0 min 0,0 UV-I 11,6 C 17,9 C 6,6 km/h (2 Bft)
24.06.2013 19:55 17,7 C 24,8 C 17,6 C 17,7 C 17,7 C 0,0 C 67 % 71 % 0 % 1016,5 hPa 0,0 l/m 4,7 km/h (1 Bft) SW 225 0 min 0,0 UV-I 11,5 C 17,7 C 6,0 km/h (2 Bft)
24.06.2013 20:00 17,6 C 24,8 C 17,5 C 17,6 C 17,5 C 0,0 C 68 % 71 % 0 % 1016,5 hPa 0,0 l/m 4,8 km/h (1 Bft) W-SW 247 0 min 0,0 UV-I 11,6 C 17,5 C 5,8 km/h (2 Bft)
24.06.2013 20:05 17,5 C 24,8 C 17,5 C 17,5 C 17,4 C 0,0 C 68 % 72 % 0 % 1016,5 hPa 0,0 l/m 5,0 km/h (1 Bft) S-SW 202 0 min 0,0 UV-I 11,5 C 17,4 C 6,6 km/h (2 Bft)
24.06.2013 20:10 17,2 C 24,8 C 17,2 C 17,2 C 17,2 C 0,0 C 69 % 72 % 0 % 1016,5 hPa 0,0 l/m 5,1 km/h (1 Bft) SW 225 0 min 0,0 UV-I 11,5 C 17,2 C 8,0 km/h (2 Bft)
24.06.2013 20:15 17,1 C 24,8 C 17,3 C 17,1 C 17,0 C 0,0 C 69 % 73 % 0 % 1016,9 hPa 0,0 l/m 4,8 km/h (1 Bft) S 180 0 min 0,0 UV-I 11,4 C 17,0 C 6,6 km/h (2 Bft)
24.06.2013 20:20 17,0 C 24,8 C 17,1 C 17,0 C 16,9 C 0,0 C 69 % 73 % 0 % 1016,9 hPa 0,0 l/m 3,9 km/h (1 Bft) W-SW 247 0 min 0,0 UV-I 11,3 C 16,9 C 7,7 km/h (2 Bft)
24.06.2013 20:25 16,9 C 24,8 C 17,0 C 16,9 C 16,9 C 0,0 C 69 % 73 % 0 % 1016,9 hPa 0,0 l/m 3,4 km/h (1 Bft) S 180 0 min 0,0 UV-I 11,2 C 16,9 C 4,0 km/h (1 Bft)
24.06.2013 20:30 16,9 C 24,8 C 17,0 C 16,8 C 16,7 C 0,0 C 70 % 74 % 0 % 1016,9 hPa 0,0 l/m 4,2 km/h (1 Bft) W-NW 292 0 min 0,0 UV-I 11,4 C 16,7 C 3,9 km/h (1 Bft)
24.06.2013 20:35 16,7 C 24,8 C 16,8 C 16,7 C 16,6 C 0,0 C 71 % 74 % 0 % 1016,4 hPa 0,0 l/m 4,3 km/h (1 Bft) W 270 0 min 0,0 UV-I 11,4 C 16,6 C 6,9 km/h (2 Bft)
24.06.2013 20:40 16,7 C 24,8 C 16,8 C 16,6 C 16,5 C 0,0 C 70 % 74 % 0 % 1016,4 hPa 0,0 l/m 4,5 km/h (1 Bft) W-SW 247 0 min 0,0 UV-I 11,2 C 16,5 C 8,7 km/h (2 Bft)
24.06.2013 20:45 16,5 C 24,8 C 16,7 C 16,5 C 16,4 C 0,0 C 70 % 73 % 0 % 1016,4 hPa 0,0 l/m 5,0 km/h (1 Bft) SW 225 0 min 0,0 UV-I 11,0 C 16,4 C 7,2 km/h (2 Bft)
24.06.2013 20:50 16,5 C 24,8 C 16,7 C 16,4 C 16,2 C 0,0 C 70 % 74 % 0 % 1016,4 hPa 0,0 l/m 4,0 km/h (1 Bft) W 270 0 min 0,0 UV-I 11,0 C 16,2 C 1,9 km/h (1 Bft)
24.06.2013 20:55 16,4 C 24,8 C 16,6 C 16,3 C 16,2 C 0,0 C 71 % 74 % 0 % 1016,7 hPa 0,0 l/m 3,1 km/h (1 Bft) N-NO 22 0 min 0,0 UV-I 11,1 C 16,2 C 1,6 km/h (1 Bft)
24.06.2013 21:00 16,3 C 24,8 C 16,4 C 16,2 C 16,0 C 0,0 C 71 % 74 % 0 % 1016,7 hPa 0,0 l/m 2,4 km/h (1 Bft) W-SW 247 0 min 0,0 UV-I 11,0 C 16,0 C 7,1 km/h (2 Bft)
24.06.2013 21:05 16,2 C 24,8 C 16,4 C 16,1 C 16,0 C 0,0 C 71 % 74 % 0 % 1016,7 hPa 0,0 l/m 2,4 km/h (1 Bft) O 90 0 min 0,0 UV-I 10,9 C 16,0 C 4,5 km/h (1 Bft)
24.06.2013 21:10 16,3 C 24,7 C 16,4 C 16,2 C 15,9 C 0,0 C 72 % 75 % 0 % 1016,7 hPa 0,0 l/m 3,4 km/h (1 Bft) W 270 0 min 0,0 UV-I 11,2 C 15,9 C 4,3 km/h (1 Bft)
24.06.2013 21:15 16,1 C 24,7 C 16,4 C 16,0 C 15,8 C 0,0 C 72 % 75 % 0 % 1016,6 hPa 0,0 l/m 3,1 km/h (1 Bft) W-SW 247 0 min 0,0 UV-I 11,0 C 15,8 C 4,0 km/h (1 Bft)
24.06.2013 21:20 16,0 C 24,7 C 16,3 C 15,9 C 15,7 C 0,0 C 72 % 76 % 0 % 1016,6 hPa 0,0 l/m 1,9 km/h (1 Bft) SW 225 0 min 0,0 UV-I 11,0 C 15,7 C 2,4 km/h (1 Bft)
24.06.2013 21:25 16,1 C 24,7 C 16,2 C 15,9 C 15,6 C 0,0 C 73 % 76 % 0 % 1016,6 hPa 0,0 l/m 1,9 km/h (1 Bft) S 180 0 min 0,0 UV-I 11,3 C 15,6 C 2,6 km/h (1 Bft)
24.06.2013 21:30 16,0 C 24,7 C 16,2 C 15,9 C 15,6 C 0,0 C 73 % 77 % 0 % 1016,6 hPa 0,0 l/m 2,7 km/h (1 Bft) W-SW 247 0 min 0,0 UV-I 11,2 C 15,6 C 3,7 km/h (1 Bft)
24.06.2013 21:35 15,9 C 24,7 C 16,2 C 15,8 C 15,5 C 0,0 C 74 % 77 % 0 % 1016,9 hPa 0,0 l/m 2,4 km/h (1 Bft) S-SW 202 0 min 0,0 UV-I 11,3 C 15,5 C 0,0 km/h (0 Bft)
24.06.2013 21:40 15,8 C 24,7 C 16,1 C 15,7 C 15,5 C 0,0 C 74 % 77 % 0 % 1016,9 hPa 0,0 l/m 2,3 km/h (1 Bft) W-SW 247 0 min 0,0 UV-I 11,2 C 15,5 C 3,5 km/h (1 Bft)
24.06.2013 21:45 15,9 C 24,7 C 16,1 C 15,8 C 15,5 C 0,0 C 74 % 77 % 0 % 1016,9 hPa 0,0 l/m 2,6 km/h (1 Bft) SW 225 0 min 0,0 UV-I 11,3 C 15,5 C 5,1 km/h (1 Bft)
24.06.2013 21:50 15,8 C 24,7 C 16,1 C 15,7 C 15,4 C 0,0 C 75 % 77 % 0 % 1016,9 hPa 0,0 l/m 2,7 km/h (1 Bft) SW 225 0 min 0,0 UV-I 11,4 C 15,4 C 4,7 km/h (1 Bft)
24.06.2013 21:55 15,7 C 24,8 C 16,0 C 15,6 C 15,3 C 0,0 C 75 % 78 % 0 % 1017,1 hPa 0,0 l/m 2,6 km/h (1 Bft) S-SW 202 0 min 0,0 UV-I 11,3 C 15,3 C 5,1 km/h (1 Bft)
24.06.2013 22:00 15,7 C 24,8 C 15,9 C 15,6 C 15,3 C 0,0 C 75 % 78 % 0 % 1017,1 hPa 0,0 l/m 2,7 km/h (1 Bft) W-SW 247 0 min 0,0 UV-I 11,3 C 15,3 C 4,2 km/h (1 Bft)
24.06.2013 22:05 15,6 C 24,8 C 15,9 C 15,5 C 15,3 C 0,0 C 76 % 78 % 0 % 1017,1 hPa 0,0 l/m 2,6 km/h (1 Bft) W-SW 247 0 min 0,0 UV-I 11,4 C 15,3 C 2,9 km/h (1 Bft)
24.06.2013 22:10 15,7 C 24,8 C 15,8 C 15,5 C 15,2 C 0,0 C 76 % 78 % 0 % 1017,1 hPa 0,0 l/m 2,6 km/h (1 Bft) W-SW 247 0 min 0,0 UV-I 11,5 C 15,2 C 2,6 km/h (1 Bft)
24.06.2013 22:16 15,6 C 24,8 C 15,9 C 15,5 C 15,2 C 0,0 C 76 % 78 % 0 % 1017,2 hPa 0,0 l/m 2,7 km/h (1 Bft) W-SW 247 0 min 0,0 UV-I 11,4 C 15,2 C 4,0 km/h (1 Bft)
24.06.2013 22:20 15,6 C 24,8 C 15,7 C 15,5 C 15,2 C 0,0 C 77 % 79 % 0 % 1017,2 hPa 0,0 l/m 2,1 km/h (1 Bft) SW 225 0 min 0,0 UV-I 11,6 C 15,2 C 1,6 km/h (1 Bft)
24.06.2013 22:25 15,6 C 24,8 C 15,7 C 15,4 C 15,1 C 0,0 C 77 % 79 % 0 % 1017,2 hPa 0,0 l/m 1,4 km/h (1 Bft) W-SW 247 0 min 0,0 UV-I 11,6 C 15,1 C 2,1 km/h (1 Bft)
24.06.2013 22:30 15,5 C 24,8 C 15,6 C 15,3 C 15,0 C 0,0 C 78 % 79 % 0 % 1017,2 hPa 0,0 l/m 1,4 km/h (1 Bft) SW 225 0 min 0,0 UV-I 11,7 C 15,0 C 2,3 km/h (1 Bft)
24.06.2013 22:35 15,5 C 24,8 C 15,7 C 15,3 C 15,0 C 0,0 C 78 % 79 % 0 % 1017,3 hPa 0,0 l/m 1,9 km/h (1 Bft) S 180 0 min 0,0 UV-I 11,7 C 15,0 C 3,4 km/h (1 Bft)
24.06.2013 22:40 15,4 C 24,8 C 15,6 C 15,3 C 15,0 C 0,0 C 78 % 80 % 0 % 1017,3 hPa 0,0 l/m 1,6 km/h (1 Bft) SW 225 0 min 0,0 UV-I 11,6 C 15,0 C 3,7 km/h (1 Bft)
24.06.2013 22:45 15,4 C 24,8 C 15,6 C 15,3 C 15,0 C 0,0 C 79 % 80 % 0 % 1017,3 hPa 0,0 l/m 2,3 km/h (1 Bft) S-SW 202 0 min 0,0 UV-I 11,8 C 15,0 C 2,3 km/h (1 Bft)
24.06.2013 22:50 15,5 C 24,8 C 15,5 C 15,3 C 15,0 C 0,0 C 79 % 80 % 0 % 1017,3 hPa 0,0 l/m 2,7 km/h (1 Bft) W 270 0 min 0,0 UV-I 11,9 C 15,0 C 2,6 km/h (1 Bft)
24.06.2013 22:55 15,5 C 24,8 C 15,5 C 15,3 C 15,0 C 0,0 C 80 % 80 % 0 % 1017,4 hPa 0,0 l/m 2,6 km/h (1 Bft) SW 225 0 min 0,0 UV-I 12,1 C 15,0 C 5,1 km/h (1 Bft)
24.06.2013 23:00 15,5 C 24,8 C 15,4 C 15,3 C 15,0 C 0,0 C 80 % 80 % 0 % 1017,4 hPa 0,7 l/m 2,4 km/h (1 Bft) W-SW 247 0 min 0,0 UV-I 12,1 C 15,0 C 2,7 km/h (1 Bft)
24.06.2013 23:05 15,4 C 24,8 C 15,4 C 15,2 C 14,9 C 0,0 C 80 % 80 % 0 % 1017,4 hPa 0,0 l/m 2,6 km/h (1 Bft) SW 225 0 min 0,0 UV-I 12,0 C 14,9 C 2,3 km/h (1 Bft)
24.06.2013 23:10 15,3 C 24,8 C 15,4 C 15,2 C 14,9 C 0,0 C 80 % 80 % 0 % 1017,4 hPa 0,0 l/m 2,3 km/h (1 Bft) W-SW 247 0 min 0,0 UV-I 11,9 C 14,9 C 1,8 km/h (1 Bft)
24.06.2013 23:15 15,3 C 24,8 C 15,5 C 15,2 C 14,9 C 0,0 C 80 % 81 % 0 % 1017,5 hPa 0,0 l/m 1,8 km/h (1 Bft) SW 225 0 min 0,0 UV-I 11,9 C 14,9 C 2,6 km/h (1 Bft)
24.06.2013 23:20 15,3 C 24,8 C 15,5 C 15,2 C 14,9 C 0,0 C 80 % 81 % 0 % 1017,5 hPa 0,7 l/m 2,1 km/h (1 Bft) S-SW 202 0 min 0,0 UV-I 11,9 C 14,9 C 3,4 km/h (1 Bft)
24.06.2013 23:25 15,2 C 24,8 C 15,5 C 15,1 C 14,9 C 0,0 C 80 % 81 % 0 % 1017,5 hPa 0,0 l/m 2,4 km/h (1 Bft) W-SW 247 0 min 0,0 UV-I 11,8 C 14,9 C 3,1 km/h (1 Bft)
24.06.2013 23:30 15,2 C 24,8 C 15,4 C 15,1 C 14,9 C 0,0 C 80 % 80 % 0 % 1017,5 hPa 0,0 l/m 2,7 km/h (1 Bft) S-SW 202 0 min 0,0 UV-I 11,8 C 14,9 C 2,9 km/h (1 Bft)
24.06.2013 23:35 15,2 C 24,8 C 15,3 C 15,1 C 14,9 C 0,0 C 80 % 80 % 0 % 1017,5 hPa 0,0 l/m 2,7 km/h (1 Bft) SW 225 0 min 0,0 UV-I 11,8 C 14,9 C 2,1 km/h (1 Bft)
24.06.2013 23:40 15,2 C 24,8 C 15,3 C 15,1 C 14,9 C 0,0 C 80 % 80 % 0 % 1017,5 hPa 0,0 l/m 2,4 km/h (1 Bft) SW 225 0 min 0,0 UV-I 11,8 C 14,9 C 2,6 km/h (1 Bft)
24.06.2013 23:45 15,2 C 24,8 C 15,3 C 15,1 C 14,9 C 0,0 C 80 % 80 % 0 % 1017,5 hPa 0,7 l/m 2,1 km/h (1 Bft) W-SW 247 0 min 0,0 UV-I 11,8 C 14,9 C 2,3 km/h (1 Bft)
24.06.2013 23:50 15,3 C 24,8 C 15,3 C 15,2 C 14,9 C 0,0 C 80 % 80 % 0 % 1017,5 hPa 0,0 l/m 1,9 km/h (1 Bft) W-SW 247 0 min 0,0 UV-I 11,9 C 14,9 C 3,2 km/h (1 Bft)
24.06.2013 23:55 15,2 C 24,8 C 15,3 C 15,1 C 14,8 C 0,0 C 80 % 81 % 0 % 1017,6 hPa 0,0 l/m 2,1 km/h (1 Bft) SW 225 0 min 0,0 UV-I 11,8 C 14,8 C 2,7 km/h (1 Bft)
_ Min-Zeit 06:30 11:20 05:45 06:25 05:40 00:00 17:10 16:40 00:00 00:53 - 00:00 - - - 00:00 06:30 05:40 00:00
Minimum _ 12,4 C 24,4 C 13,7 C 12,7 C 12,7 C 0,0 C 54 % 62 % 0 % 1013,4 hPa - 0,0 km/h (0 Bft) - - - 0,0 UV-I 9,9 C 12,7 C 0,0 km/h (0 Bft)
_ Max-Zeit 13:55 00:10 13:55 11:20 11:20 11:20 05:50 02:45 08:50 23:55 23:00 14:10 - - 13:00 00:00 13:55 11:20 19:40
Maximum _ 21,1 C 25,6 C 20,5 C 27,1 C 27,1 C 8,0 C 85 % 83 % 100 % 1017,6 hPa 0,7 l/m 5,6 km/h
S (1 Bft)
- - 19 min 0,0 UV-I 13,3 C 27,1 C 14,6 km/h
NW (3 Bft)
Durchschnitt _ 16,6 C 24,9 C 16,7 C 18,2 C 18,1 C 1,6 C 72 % 76 % 38 % 1015,5 hPa #2,1 l/m 1,7 km/h (1 Bft) W-SW - #5:35 h 0,0 UV-I 11,4 C 18,1 C 2,4 km/h (1 Bft)
2013 www.wetterstation-wechselburg.de